Location: ???????
(55.4362°N, 38.1183°E)
Time: 21:05:57
(UTC+00:00)

N. Korean satellite - Pass Details

Date: 05 October 2021
Orbit: 450 x 495 km, 97.3° (Epoch: 15 October)

Event Time Altitude Azimuth Distance (km) Brightness Sun altitude
Rises 01:55:09 0° 25° (NNE) 2,558 10.8 -15.3°
Reaches altitude 10° 01:57:39 10° 43° (NE) 1,681 10.2 -15.0°
Maximum altitude 02:00:21 20° 91° (E) 1,201 9.6 -14.6°
Drops below altitude 10° 02:03:03 10° 140° (SE) 1,685 9.7 -14.2°
Sets 02:05:33 0° 158° (SSE) 2,567 10.4 -13.9°
